Probability
0 0 0 0 0 0 0 0 0 0 0 0 0 0 1 2 2 2 3 6 11 15 14 14 18 21 20 16 12 10 8 6 6 6 3 1 0 1 1 1 0 0 0 0 0 0 0 0 0
0 0 0 0 0 0 0 0 0 0 0 0 0 0 1 2 3 3 5 12 19 20 16 15 19 23 21 16 12 9 6 4 3 2 1 0 0 0 0 0 0 0 0 0 0 0 0 0 0
0 0 0 0 0 0 0 0 0 0 0 0 0 1 2 3 4 5 13 26 31 27 20 19 22 25 24 19 13 10 5 3 2 1 0 0 0 0 0 0 0 0 0 0 0 0 0 0 0
0 0 0 0 0 0 0 0 0 0 0 0 2 4 5 7 12 19 29 41 43 35 27 25 28 29 25 20 16 12 7 3 2 1 0 0 0 0 0 0 0 0 0 0 0 0 0 0 0
0 0 0 0 0 0 0 0 0 0 0 0 4 9 11 15 25 37 42 44 46 44 37 34 35 32 25 21 19 15 9 4 1 1 0 0 0 0 0 0 0 0 0 0 0 0 0 0 0
0 0 0 0 0 0 0 0 0 0 0 1 7 14 16 20 32 42 42 40 44 49 48 44 38 31 24 20 20 17 10 4 1 0 0 0 0 0 0 0 0 0 0 0 0 0 0 0 0
0 0 0 0 0 0 0 0 0 0 0 3 10 18 20 24 34 41 42 40 42 48 52 47 37 27 21 19 18 16 10 5 2 1 0 0 0 0 0 0 0 0 0 0 0 0 0 0 0
0 0 0 0 0 0 0 0 0 0 1 5 13 19 25 33 42 49 49 44 41 42 44 42 35 26 20 17 16 15 11 7 5 3 1 0 0 0 0 0 0 0 0 0 0 0 0 0 0
0 0 0 0 0 0 0 0 0 0 2 8 16 24 36 48 55 59 57 51 42 35 34 35 34 28 21 17 16 14 12 9 7 4 2 0 0 0 0 0 0 0 0 0 0 0 0 0 0
0 0 0 0 0 0 0 0 0 1 4 11 21 34 49 59 63 64 63 56 43 31 29 32 32 27 22 19 18 17 14 9 6 4 2 1 0 0 0 0 0 0 0 0 0 0 0 0 0
0 0 0 0 0 0 0 0 0 1 3 11 25 42 55 60 62 66 65 56 42 30 28 29 28 24 21 20 19 17 13 7 4 3 2 1 0 0 0 0 0 0 0 0 0 0 0 0 0
0 0 0 0 0 0 0 0 0 1 4 13 28 43 51 54 58 65 66 55 40 31 27 25 22 20 19 19 17 14 9 4 3 2 1 0 0 0 0 0 0 0 0 0 0 0 0 0 0
0 0 0 0 0 0 0 0 1 3 8 17 30 39 42 44 52 62 65 53 38 30 26 21 18 17 18 18 15 10 5 2 1 1 0 0 0 0 0 0 0 0 0 0 0 0 0 0 0
0 0 0 0 0 0 0 2 4 7 13 20 28 34 34 36 46 60 65 56 41 29 25 21 17 16 17 17 13 7 3 1 0 0 0 0 0 0 0 0 0 0 0 0 0 0 0 0 0
0 0 0 0 0 0 2 4 6 10 15 21 26 32 34 38 47 59 66 61 48 35 28 23 20 18 16 14 10 4 1 0 0 0 0 0 0 0 1 1 1 0 0 0 0 0 0 0 0
0 0 0 0 0 1 4 6 8 12 19 24 27 32 37 41 48 57 61 60 53 44 36 30 27 23 19 14 7 3 1 1 1 1 0 1 1 2 2 2 2 1 1 1 1 1 0 0 1
0 0 0 0 0 2 5 9 14 20 26 30 31 31 35 40 44 49 51 51 49 45 43 41 36 31 26 19 13 9 6 5 4 2 1 2 3 4 3 3 3 3 2 2 2 2 1 1 1
0 0 0 0 0 3 7 14 22 28 32 35 33 30 33 37 40 41 42 43 41 42 44 45 41 37 33 29 26 20 15 11 8 6 4 3 5 7 5 4 4 3 3 3 3 2 1 1 1
0 0 0 0 1 6 12 19 26 31 34 35 33 32 35 37 36 35 36 37 36 38 39 38 39 39 37 36 33 25 18 12 10 8 5 3 5 7 6 5 4 3 3 3 2 1 1 0 0
0 0 0 0 2 7 16 22 25 28 31 31 31 33 35 34 32 31 32 32 29 29 29 28 32 36 36 35 29 20 14 10 7 5 2 2 4 5 5 3 2 1 2 1 1 0 0 0 0
0 0 0 0 2 5 11 16 19 23 25 27 29 31 31 29 27 27 27 23 20 19 19 20 24 29 30 29 24 16 11 7 4 1 0 1 3 4 3 2 1 0 0 0 0 0 0 0 0
0 0 0 0 1 2 3 5 10 15 19 22 25 27 28 26 23 21 19 16 14 14 15 16 18 21 22 22 20 14 9 5 2 0 0 1 2 3 3 3 2 1 0 0 0 0 0 0 0
0 0 0 0 0 0 0 0 3 7 12 17 22 24 26 24 20 16 13 12 12 12 12 14 15 16 16 15 12 9 5 2 0 0 0 0 1 2 2 2 2 1 0 0 0 0 0 0 0
0 0 0 0 0 0 0 0 0 2 8 17 22 21 20 18 14 11 10 10 10 10 10 11 12 12 10 8 5 3 1 0 0 0 0 0 0 1 1 1 1 1 0 0 0 0 0 0 0
0 0 0 0 0 0 0 0 0 1 8 17 19 16 13 11 9 8 8 9 10 10 10 9 9 8 6 4 3 1 0 0 0 0 0 0 0 0 0 0 0 0 0 0 0 0 0 0 0
0 0 0 0 0 0 0 0 0 2 8 14 14 11 9 7 6 5 5 6 8 8 8 7 6 5 4 3 2 1 0 0 0 0 0 0 0 0 0 0 0 0 0 0 0 0 0 0 0
0 0 0 0 0 0 0 0 1 3 6 8 8 7 7 5 3 2 2 3 4 5 5 4 3 3 2 2 2 1 0 0 0 0 0 0 0 0 0 0 0 0 0 0 0 0 0 0 0
0 0 0 0 0 0 0 0 1 3 4 5 5 6 6 3 1 0 0 1 2 2 2 1 1 1 1 1 1 0 0 0 0 0 0 0 0 0 0 0 0 0 0 0 0 0 0 0 0
0 0 0 0 0 0 0 0 0 2 4 4 4 4 4 2 0 0 0 1 1 1 1 0 0 0 0 0 0 0 0 0 0 0 0 0 0 0 0 0 0 0 0 0 0 0 0 0 0
0 0 0 0 0 0 0 0 0 1 3 4 3 2 1 1 0 0 0 0 0 0 0 0 0 0 0 0 0 0 0 0 0 0 0 0 0 0 0 0 0 0 0 0 0 0 0 0 0
Wind_Speed
10 7 1 3 5 4 2 4 3 3 2 3 2 2 4 5 6 5 5 15 17 17 14 17 19 19 19 18 18 18 18 17 17 16 16 16 15 14 14 13 12 12 12 12 12 12 11 11 11
5 4 3 5 4 0 5 4 4 6 5 2 2 1 4 4 3 7 8 15 19 18 14 15 19 19 19 19 18 18 18 18 17 16 16 16 15 14 13 13 12 12 11 11 11 10 10 9 9
6 1 2 3 3 6 6 5 6 4 4 2 2 1 5 4 6 6 10 18 17 16 13 16 21 20 20 19 19 18 18 18 17 16 16 15 14 13 12 12 12 11 11 10 10 9 8 8 8
3 4 4 3 6 7 6 6 5 3 2 1 4 3 3 4 2 10 18 19 18 15 13 16 21 20 19 19 19 19 19 18 17 16 16 15 14 12 12 12 12 11 10 9 9 8 7 6 6
4 4 2 2 7 7 6 7 6 3 2 2 5 3 5 6 9 18 18 18 17 13 11 15 19 19 19 19 19 18 18 17 16 16 15 14 13 12 11 11 11 10 9 9 8 6 5 4 3
4 4 3 4 7 6 6 6 4 4 4 3 6 4 3 0 10 15 16 15 15 14 12 13 18 20 19 19 19 18 17 17 16 15 15 14 13 12 11 11 10 10 9 8 7 6 4 2 1
4 3 4 5 5 7 8 5 5 6 5 4 7 6 1 4 9 13 15 15 13 13 12 11 12 15 18 18 18 18 17 16 16 15 14 14 13 12 12 11 10 9 9 8 7 6 4 3 2
5 3 2 3 4 8 5 3 4 6 6 5 7 9 9 11 11 13 14 13 13 11 11 10 10 10 10 12 18 18 17 16 16 16 16 15 14 13 12 10 9 9 9 8 7 6 5 4 4
4 3 4 5 5 8 5 4 5 3 2 3 5 7 11 14 14 14 13 12 12 12 10 10 10 9 9 9 13 15 16 16 15 13 16 13 6 6 7 9 11 10 9 8 7 6 5 5 5
5 4 9 8 7 7 8 5 4 2 1 1 1 4 10 14 15 16 16 16 15 14 12 10 10 10 9 9 7 6 7 8 7 6 8 5 5 5 7 9 12 11 10 9 8 7 6 5 3
5 8 9 10 12 8 7 6 3 2 3 6 8 10 13 12 12 14 15 14 14 15 13 11 11 10 9 6 6 4 4 5 5 6 7 5 4 3 4 3 5 5 7 4 4 4 2 2 2
4 8 9 11 11 7 7 5 3 3 7 7 11 14 14 12 12 14 15 14 12 13 13 12 12 11 9 8 7 6 5 5 5 6 7 5 3 4 3 3 3 3 2 2 2 2 3 3 3
5 8 8 10 11 9 7 6 4 4 3 5 9 11 11 12 10 10 12 12 11 11 12 13 12 11 9 8 6 7 6 6 6 5 6 6 5 4 4 3 3 3 2 3 3 2 2 1 1
6 6 8 8 7 5 5 7 2 5 2 6 9 9 9 8 8 7 9 10 10 8 10 10 11 10 11 9 7 6 6 5 5 5 6 6 4 4 4 3 3 3 3 3 2 2 1 1 0
4 6 9 7 5 5 1 6 5 6 3 5 6 8 8 6 7 8 10 10 10 9 9 10 11 11 11 9 8 7 6 6 5 4 4 4 3 4 4 3 3 2 2 2 2 2 1 1 1
6 5 6 10 5 5 1 7 9 3 5 5 5 6 7 6 6 6 9 8 6 8 9 10 11 11 10 8 6 4 5 5 4 3 3 3 4 4 4 3 2 2 2 2 2 2 2 1 1
4 3 7 11 6 4 3 4 5 2 7 5 4 6 8 7 7 6 6 8 6 7 9 7 7 9 9 8 6 5 4 4 4 3 3 3 4 4 4 3 2 3 2 2 2 2 2 1 1
5 5 6 9 7 3 3 2 2 4 10 8 7 7 8 9 6 6 6 6 5 3 6 6 5 6 6 6 5 5 6 5 4 4 3 4 4 5 4 3 3 3 3 3 2 3 3 2 1
6 7 10 12 9 1 3 4 3 5 9 9 9 9 9 8 7 8 9 9 7 5 5 4 5 4 5 5 5 5 5 5 5 5 6 6 5 5 5 4 4 4 4 3 3 2 4 3 2
8 9 10 10 6 3 6 6 5 8 8 8 10 10 10 8 9 9 9 9 7 7 6 5 4 3 3 4 4 5 6 6 5 5 7 8 7 6 5 6 5 4 4 5 4 3 2 2 3
8 7 6 5 4 5 6 5 4 6 9 10 11 11 11 10 9 9 10 9 8 7 6 5 4 4 4 5 6 7 6 5 5 6 6 8 8 8 8 8 6 6 6 5 5 4 3 2 3
6 6 4 2 3 3 2 1 1 4 7 8 8 9 10 10 9 9 9 8 7 7 6 5 5 5 5 6 7 8 7 6 5 5 6 8 9 9 8 8 8 7 6 6 6 6 4 4 3
5 4 1 1 1 2 2 3 3 2 5 5 7 8 10 10 9 9 9 7 7 8 7 7 7 7 7 8 9 10 9 8 7 7 8 8 8 9 8 8 8 8 7 7 7 7 7 5 4
2 4 6 5 5 2 3 3 3 3 5 8 8 9 9 9 9 10 9 8 8 8 7 7 9 10 10 10 10 11 12 11 10 9 8 6 6 6 9 9 8 7 7 7 7 7 8 7 7
4 6 4 5 4 5 3 2 2 1 5 10 11 9 9 9 8 9 10 9 9 9 9 9 11 11 11 12 12 11 11 11 11 9 8 7 6 6 7 7 7 6 6 7 7 7 7 7 7
1 7 6 4 3 4 2 2 2 6 10 12 11 10 10 9 9 9 9 9 9 10 10 10 11 11 11 12 11 10 10 8 8 9 8 7 6 6 6 7 7 7 7 7 7 6 6 6 7
1 2 7 6 2 1 1 3 3 6 10 11 11 10 10 10 10 10 9 10 10 11 10 10 11 12 12 12 12 12 11 11 10 9 8 7 6 6 7 7 8 8 7 7 7 6 6 6 6
4 3 3 4 3 2 1 2 3 8 10 10 10 10 10 9 10 10 9 10 10 10 10 10 11 12 11 10 10 10 10 10 9 8 8 8 7 6 7 8 8 8 8 8 7 5 5 6 5
3 1 2 3 4 5 2 2 2 8 10 11 11 11 11 10 10 9 9 9 9 9 9 10 10 11 11 11 10 10 9 9 9 8 8 7 7 7 8 8 8 8 8 7 6 6 6 6 6
2 2 4 3 1 2 3 2 4 7 10 12 12 11 11 11 10 10 9 9 9 9 9 9 9 10 10 10 10 9 9 8 8 8 7 7 7 7 7 7 7 7 7 6 6 6 5 5 5
Wind_Direction
316 311 324 67 54 48 250 240 202 202 213 181 171 208 210 215 183 186 167 152 146 148 155 155 151 145 139 134 130 127 123 119 115 112 110 108 106 105 105 105 105 106 106 106 105 103 99 95 93
312 316 34 66 96 281 270 239 219 203 197 164 116 207 267 246 143 122 135 151 146 147 152 155 152 147 142 138 135 132 129 126 123 121 118 116 114 113 113 113 112 111 110 109 107 103 99 94 89
308 286 84 89 159 191 230 239 234 232 204 188 135 189 261 208 140 138 146 143 141 145 150 156 153 149 146 143 139 137 135 133 131 129 126 124 122 121 121 120 118 116 114 113 110 105 100 94 88
7 30 55 117 231 229 222 246 245 248 273 357 110 112 298 289 160 138 138 141 141 145 150 155 154 151 149 147 144 143 141 140 138 136 134 132 130 129 128 127 125 124 122 120 117 112 105 97 88
63 78 68 253 247 251 249 245 229 210 224 36 76 80 319 330 113 130 138 143 142 143 148 154 153 152 152 150 149 148 146 145 143 142 140 138 137 136 135 135 134 133 132 130 128 125 118 107 89
51 75 132 239 258 263 261 239 219 219 205 165 127 123 324 141 133 139 140 141 141 143 145 151 154 155 155 154 152 151 150 149 148 146 145 144 143 142 143 144 144 143 142 143 144 144 144 143 122
123 117 200 229 261 273 265 250 205 211 215 186 140 121 147 188 161 150 141 136 137 140 143 147 154 157 158 157 156 155 154 152 151 150 149 149 149 150 153 154 155 156 158 161 165 170 179 199 236
147 113 254 253 261 269 269 273 240 206 209 168 147 149 181 189 165 149 136 133 135 139 145 148 151 153 156 158 160 159 157 155 155 156 156 156 158 160 164 163 167 171 176 180 184 191 204 226 252
112 90 245 247 249 265 290 302 285 250 172 166 172 176 178 160 153 145 137 136 141 146 150 152 151 151 152 156 163 161 160 160 159 161 162 160 161 164 169 177 181 185 190 196 200 207 222 241 260
120 171 232 230 236 261 286 281 269 285 201 118 110 123 144 151 153 153 152 154 155 157 159 157 154 153 154 162 153 156 159 160 160 162 163 160 166 178 183 193 193 196 200 206 212 221 234 249 264
178 207 237 251 254 254 273 282 260 161 226 193 166 156 154 155 158 157 157 159 160 160 162 163 162 160 162 153 153 158 153 158 164 167 167 167 173 190 195 190 201 205 208 210 224 234 233 238 249
231 251 242 251 257 257 255 263 280 217 225 193 167 160 161 162 172 164 159 158 160 163 165 165 168 166 166 155 163 165 163 170 175 179 177 174 181 194 190 188 191 197 205 202 214 223 234 243 250
264 260 263 257 260 253 254 254 256 270 236 142 144 147 166 175 177 161 151 151 155 170 166 167 171 169 165 159 170 170 173 179 182 179 185 183 183 188 185 187 187 198 201 200 204 211 218 229 244
257 277 287 280 273 262 256 271 272 257 164 132 145 155 170 170 158 145 141 146 157 171 169 167 172 171 165 168 174 171 176 177 179 182 186 183 179 175 172 173 174 189 194 193 184 177 173 182 149
307 327 315 294 278 266 322 308 267 239 144 126 138 145 143 136 143 143 145 151 163 171 169 169 169 172 171 170 174 169 173 171 179 181 172 166 159 154 149 151 159 175 170 162 140 137 127 107 91
352 347 306 290 282 277 157 267 281 260 135 144 144 134 128 122 127 132 138 141 156 174 173 176 176 170 171 165 167 165 162 157 165 157 139 144 142 135 132 134 140 134 123 125 126 117 94 76 68
346 299 281 292 281 259 191 244 309 36 115 124 126 118 109 101 94 110 130 140 147 167 167 167 167 167 168 158 153 138 131 127 125 117 122 126 119 117 116 115 112 106 94 81 95 77 90 76 40
257 269 283 281 284 253 197 186 352 48 94 98 99 96 91 84 76 91 92 87 83 118 129 137 154 161 157 143 123 112 106 98 91 91 94 96 93 99 103 97 88 86 81 65 66 75 62 64 38
248 272 282 280 287 312 135 119 76 76 87 92 92 94 91 84 76 69 65 65 64 70 89 112 139 150 142 135 131 122 106 91 79 71 64 67 71 76 82 87 74 71 76 69 65 80 67 42 17
253 268 277 293 331 50 104 93 76 70 78 91 103 102 95 82 70 64 63 62 59 66 64 60 72 92 107 119 119 110 107 96 84 68 57 49 54 58 69 73 71 65 69 57 47 60 82 45 30
261 249 253 280 348 35 87 51 57 71 73 78 85 92 90 87 78 68 70 65 59 53 48 42 33 64 68 101 110 109 100 89 79 64 57 48 51 58 62 62 66 61 65 61 46 44 75 80 38
266 259 240 288 3 303 79 126 274 106 82 78 81 84 86 87 81 76 77 72 61 55 55 50 38 49 62 87 109 114 114 107 91 84 75 61 54 56 61 65 69 67 65 62 54 47 50 72 61
253 261 290 349 22 337 17 121 252 139 110 108 99 91 87 84 83 76 70 70 62 57 53 54 52 54 58 75 95 102 102 102 99 89 79 70 60 56 59 60 64 65 64 63 59 56 56 57 61
286 14 17 33 58 335 260 150 247 222 170 138 115 97 88 82 77 70 62 57 59 55 53 56 61 62 64 73 80 95 104 107 104 98 91 78 69 60 59 63 62 62 63 62 60 59 59 59 61
45 70 27 360 5 266 286 120 248 270 122 127 121 105 90 82 78 73 65 59 58 57 55 61 69 66 66 74 77 84 92 95 98 99 96 91 80 70 61 65 63 62 62 62 60 60 56 55 59
252 136 157 199 230 280 352 102 57 79 91 98 102 99 90 79 73 69 64 64 65 62 61 66 71 72 71 76 78 77 81 86 86 87 92 88 85 80 72 69 67 64 63 63 58 59 56 55 55
237 212 177 153 201 271 250 121 110 103 104 105 104 99 92 85 78 74 68 64 65 66 63 70 77 78 75 77 80 79 81 86 89 88 88 88 84 82 73 70 66 61 59 59 58 58 54 55 54
176 187 89 112 147 249 250 169 178 164 147 128 115 108 101 93 85 78 74 73 72 72 72 71 75 79 79 79 82 87 83 86 89 90 85 83 78 77 77 71 67 61 56 56 58 54 50 53 44
349 16 117 127 155 159 205 260 295 179 157 138 125 118 112 104 96 88 82 80 81 79 77 77 77 80 80 81 83 85 83 84 84 84 82 81 77 75 77 74 70 64 56 51 53 51 50 52 43
157 191 138 142 240 147 147 269 360 123 127 126 121 117 113 108 102 96 92 87 82 81 81 82 81 83 85 87 86 84 82 80 80 80 79 79 78 75 78 77 72 68 61 51 49 44 45 49 44